Location: �chenoz-la-M�line
(47.6009°N, 6.1354°E)
Time: 12:35:01
(UTC+00:00)

CENTAUR R/B - Pass Details

Date: 27 January 2021
Orbit: 742 x 1446 km, 63.5° (Epoch: 01 March)

Event Time Altitude Azimuth Distance (km) Brightness Sun altitude
Rises 05:17:50 0° 210° (SSW) 3,377 5.1 -18.5°
Reaches altitude 10° 05:20:07 10° 209° (SSW) 2,518 4.5 -18.1°
Maximum altitude 05:25:57 74° 125° (SE) 1,024 2.7 -17.2°
Drops below altitude 10° 05:32:59 10° 43° (NE) 3,012 5.5 -16.0°
Sets 05:35:56 0° 41° (NE) 4,086 6.2 -15.5°
